When you browse on this site, cookies collect data to enhance your experience and personalize the content and advertising you see.
Visit our Privacy Policy to learn more. By continuing to use the site, you agree to this use of cookies and data.
  • Em Portugal
  • Lista de países
  • Para 7 dias
  • Temperatura da água
  • Mapas de satélite
  • Mapa do tempo
  • Widgets de tempo
  • user-avatar
    Iniciar Sessão

    Previsão horária em Golden Sands

    Hoje, 20 Janeiro, Domingo

    Tempo Temperatura Precipitação Vento Pressão Humidade
    00:00 +3°C° 0.2 mm 6 m/s 766 mmHg 89%
    01:00 +3°C° 0.2 mm 6 m/s 765 mmHg 90%
    02:00 +3°C° 0 mm 6 m/s 765 mmHg 90%
    03:00 +3°C° 0.1 mm 6 m/s 765 mmHg 90%
    04:00 +3°C° 0.1 mm 6 m/s 764 mmHg 91%
    05:00 +3°C° 0.1 mm 5 m/s 764 mmHg 92%
    06:00 +4°C° 0.1 mm 6 m/s 764 mmHg 92%
    07:00 +4°C° 0.1 mm 6 m/s 764 mmHg 93%
    08:00 +5°C° 0 mm 5 m/s 763 mmHg 94%
    09:00 +5°C° 0 mm 5 m/s 763 mmHg 94%
    10:00 +5°C° 0 mm 5 m/s 763 mmHg 95%
    11:00 +6°C° 0 mm 5 m/s 763 mmHg 95%
    12:00 +6°C° 0 mm 5 m/s 762 mmHg 95%
    13:00 +6°C° 0 mm 4 m/s 762 mmHg 95%
    14:00 +6°C° 0 mm 4 m/s 762 mmHg 95%
    15:00 +7°C° 0 mm 4 m/s 761 mmHg 95%
    16:00 +7°C° 0 mm 4 m/s 761 mmHg 95%
    17:00 +7°C° 0 mm 4 m/s 760 mmHg 95%
    18:00 +7°C° 0 mm 4 m/s 760 mmHg 95%
    19:00 +7°C° 0 mm 5 m/s 760 mmHg 94%
    20:00 +7°C° 0 mm 5 m/s 760 mmHg 94%
    21:00 +7°C° 0.2 mm 5 m/s 760 mmHg 94%
    22:00 +7°C° 0.2 mm 5 m/s 760 mmHg 93%
    23:00 +8°C° 0.2 mm 6 m/s 760 mmHg 93%

    Amanhã, 21 Janeiro, Segunda-feira

    Tempo Temperatura Precipitação Vento Pressão Humidade
    00:00 +7°C° 0.3 mm 5 m/s 760 mmHg 93%
    01:00 +7°C° 0.3 mm 5 m/s 760 mmHg 93%
    02:00 +6°C° 0.3 mm 4 m/s 760 mmHg 93%
    03:00 +5°C° 0 mm 5 m/s 760 mmHg 91%
    04:00 +3°C° 0 mm 6 m/s 760 mmHg 89%
    05:00 +2°C° 0 mm 7 m/s 760 mmHg 88%
    06:00 +2°C° 0 mm 7 m/s 761 mmHg 87%
    07:00 +2°C° 0 mm 7 m/s 761 mmHg 86%
    08:00 0°C° 0 mm 7 m/s 761 mmHg 86%
    09:00 +2°C° 0 mm 7 m/s 762 mmHg 83%
    10:00 +3°C° 0 mm 7 m/s 763 mmHg 80%
    11:00 +3°C° 0 mm 6 m/s 763 mmHg 78%
    12:00 +3°C° 0 mm 6 m/s 763 mmHg 76%
    13:00 +4°C° 0 mm 6 m/s 763 mmHg 74%
    14:00 +4°C° 0 mm 6 m/s 763 mmHg 72%
    15:00 +3°C° 0 mm 6 m/s 764 mmHg 73%
    16:00 +2°C° 0 mm 6 m/s 764 mmHg 74%
    17:00 +2°C° 0 mm 6 m/s 764 mmHg 75%
    18:00 +1°C° 0 mm 6 m/s 765 mmHg 77%
    19:00 +1°C° 0 mm 6 m/s 765 mmHg 78%
    20:00 -1°C° 0 mm 6 m/s 766 mmHg 79%
    21:00 0°C° 0 mm 5 m/s 766 mmHg 80%
    22:00 0°C° 0 mm 5 m/s 766 mmHg 81%
    23:00 -1°C° 0 mm 5 m/s 766 mmHg 82%

    Depois de amanhã, 22 Janeiro, Terça-feira

    Tempo Temperatura Precipitação Vento Pressão Humidade
    00:00 -1°C° 0 mm 4 m/s 766 mmHg 83%
    01:00 -1°C° 0 mm 4 m/s 766 mmHg 84%
    02:00 -1°C° 0 mm 4 m/s 766 mmHg 85%
    03:00 0°C° 0 mm 3 m/s 766 mmHg 85%
    04:00 0°C° 0 mm 3 m/s 766 mmHg 86%
    05:00 0°C° 0 mm 3 m/s 765 mmHg 87%
    06:00 +1°C° 0 mm 3 m/s 765 mmHg 85%
    07:00 +1°C° 0 mm 3 m/s 765 mmHg 84%
    08:00 +1°C° 0 mm 3 m/s 765 mmHg 83%
    09:00 +2°C° 0 mm 3 m/s 765 mmHg 81%
    10:00 +2°C° 0 mm 3 m/s 765 mmHg 79%
    11:00 +3°C° 0 mm 4 m/s 765 mmHg 78%
    12:00 +3°C° 0 mm 4 m/s 764 mmHg 78%
    13:00 +3°C° 0 mm 3 m/s 764 mmHg 78%
    14:00 +3°C° 0 mm 3 m/s 763 mmHg 79%
    15:00 +3°C° 0 mm 4 m/s 763 mmHg 80%
    16:00 +3°C° 0 mm 4 m/s 762 mmHg 82%
    17:00 +2°C° 0 mm 5 m/s 762 mmHg 83%
    18:00 +2°C° 0 mm 5 m/s 762 mmHg 84%
    19:00 +2°C° 0 mm 5 m/s 761 mmHg 85%
    20:00 +2°C° 0 mm 6 m/s 761 mmHg 86%
    21:00 +2°C° 0 mm 6 m/s 761 mmHg 86%
    22:00 +3°C° 0 mm 6 m/s 760 mmHg 87%
    23:00 +3°C° 0 mm 6 m/s 760 mmHg 88%

    23 Janeiro, Quarta-feira

    Tempo Temperatura Precipitação Vento Pressão Humidade
    00:00 +3°C° 0 mm 6 m/s 759 mmHg 89%
    01:00 +3°C° 0 mm 7 m/s 759 mmHg 89%
    02:00 +4°C° 0 mm 7 m/s 758 mmHg 90%
    03:00 +4°C° 0 mm 7 m/s 758 mmHg 91%
    04:00 +4°C° 0 mm 7 m/s 757 mmHg 91%
    05:00 +4°C° 0 mm 8 m/s 756 mmHg 92%
    06:00 +4°C° 1.1 mm 8 m/s 756 mmHg 94%
    07:00 +4°C° 1.1 mm 8 m/s 756 mmHg 95%
    08:00 +4°C° 1.1 mm 8 m/s 756 mmHg 97%
    09:00 +5°C° 0.4 mm 8 m/s 755 mmHg 94%
    10:00 +6°C° 0.4 mm 8 m/s 755 mmHg 91%
    11:00 +7°C° 0.4 mm 8 m/s 755 mmHg 87%
    12:00 +7°C° 0.1 mm 8 m/s 754 mmHg 85%
    13:00 +9°C° 0.1 mm 8 m/s 754 mmHg 82%
    14:00 +8°C° 0.1 mm 9 m/s 753 mmHg 80%
    15:00 +8°C° 0 mm 9 m/s 753 mmHg 81%
    16:00 +8°C° 0 mm 9 m/s 753 mmHg 82%
    17:00 +8°C° 0 mm 9 m/s 753 mmHg 84%
    18:00 +8°C° 0 mm 9 m/s 753 mmHg 83%
    19:00 +8°C° 0 mm 9 m/s 753 mmHg 83%
    20:00 +8°C° 0 mm 9 m/s 754 mmHg 82%
    21:00 +8°C° 0 mm 9 m/s 754 mmHg 84%
    22:00 +8°C° 0 mm 9 m/s 754 mmHg 87%
    23:00 +7°C° 0 mm 8 m/s 754 mmHg 89%

    24 Janeiro, Quinta-feira

    Tempo Temperatura Precipitação Vento Pressão Humidade
    00:00 +7°C° 0 mm 8 m/s 754 mmHg 89%
    01:00 +7°C° 0 mm 8 m/s 754 mmHg 89%
    02:00 +7°C° 0 mm 8 m/s 754 mmHg 89%
    03:00 +7°C° 0 mm 8 m/s 754 mmHg 91%
    04:00 +7°C° 0 mm 8 m/s 754 mmHg 92%
    05:00 +6°C° 0 mm 8 m/s 754 mmHg 94%
    06:00 +7°C° 0.1 mm 8 m/s 754 mmHg 94%
    07:00 +8°C° 0.1 mm 7 m/s 754 mmHg 95%
    08:00 +8°C° 0.1 mm 7 m/s 754 mmHg 95%
    09:00 +8°C° 0 mm 6 m/s 754 mmHg 93%
    10:00 +8°C° 0 mm 6 m/s 754 mmHg 92%
    11:00 +8°C° 0 mm 6 m/s 753 mmHg 90%
    12:00 +9°C° 0 mm 6 m/s 753 mmHg 87%
    13:00 +9°C° 0 mm 6 m/s 752 mmHg 84%
    14:00 +9°C° 0 mm 6 m/s 751 mmHg 81%
    15:00 +8°C° 0 mm 6 m/s 751 mmHg 84%
    16:00 +8°C° 0 mm 6 m/s 750 mmHg 87%
    17:00 +6°C° 0 mm 7 m/s 750 mmHg 91%
    18:00 +7°C° 0 mm 6 m/s 750 mmHg 90%
    19:00 +5°C° 0 mm 6 m/s 750 mmHg 90%
    20:00 +6°C° 0 mm 5 m/s 749 mmHg 90%
    21:00 +6°C° 0 mm 5 m/s 749 mmHg 89%
    22:00 +6°C° 0 mm 5 m/s 749 mmHg 89%
    23:00 +6°C° 0 mm 5 m/s 749 mmHg 89%

    25 Janeiro, Sexta-feira

    Tempo Temperatura Precipitação Vento Pressão Humidade
    00:00 +6°C° 0 mm 5 m/s 748 mmHg 89%
    01:00 +6°C° 0 mm 4 m/s 748 mmHg 90%
    02:00 +5°C° 0 mm 4 m/s 748 mmHg 91%
    03:00 +7°C° 0 mm 3 m/s 748 mmHg 92%
    04:00 +7°C° 0 mm 3 m/s 748 mmHg 92%
    05:00 +7°C° 0 mm 3 m/s 748 mmHg 92%
    06:00 +7°C° 0.9 mm 3 m/s 748 mmHg 94%
    07:00 +7°C° 0.9 mm 3 m/s 748 mmHg 96%
    08:00 +7°C° 0.9 mm 3 m/s 748 mmHg 98%
    09:00 +8°C° 0.2 mm 3 m/s 749 mmHg 96%
    10:00 +9°C° 0.2 mm 3 m/s 749 mmHg 95%
    11:00 +9°C° 0.2 mm 3 m/s 749 mmHg 93%
    12:00 +8°C° 0.1 mm 4 m/s 749 mmHg 90%
    13:00 +10°C° 0.1 mm 4 m/s 749 mmHg 86%
    14:00 +10°C° 0.1 mm 4 m/s 748 mmHg 83%
    15:00 +10°C° 0 mm 4 m/s 749 mmHg 86%
    16:00 +8°C° 0 mm 4 m/s 749 mmHg 88%
    17:00 +8°C° 0 mm 3 m/s 749 mmHg 91%
    18:00 +8°C° 0 mm 3 m/s 749 mmHg 92%
    19:00 +8°C° 0 mm 2 m/s 749 mmHg 92%
    20:00 +7°C° 0 mm 2 m/s 749 mmHg 93%
    21:00 +7°C° 0 mm 3 m/s 750 mmHg 94%
    22:00 +7°C° 0 mm 3 m/s 750 mmHg 95%
    23:00 +6°C° 0 mm 4 m/s 750 mmHg 96%
    Mostrar mais